Location: Bednik
(45.3500°N, 16.3833°E)
Time: 05:36:46
(UTC+00:00)

Sich 1 - Pass Details

Date: 08 August 2020
Orbit: 593 x 626 km, 82.5° (Epoch: 19 September)

Event Time Altitude Azimuth Distance (km) Brightness Sun altitude
Exits shadow 19:57:38 - 201° (SSW) 2,871 6.2 -16.2°
Reaches altitude 10° 19:59:51 10° 206° (SSW) 1,993 5.5 -16.5°
Maximum altitude 20:04:08 50° 282° (WNW) 805 4.0 -17.0°
Drops below altitude 10° 20:08:29 10° 359° (N) 2,012 6.4 -17.5°
Sets 20:10:48 0° 4° (N) 2,923 7.2 -17.8°
